2019-036W (44359 NORAD) Tracking and Keplerian Element Data

This shows tracking and keplerian element data for the satellite.

Feedback or suggestion? Click here.




ElementValue
Catalog44359
Name2019-036W
Epoch Orbit369
Epoch Day201.90497873
Epoch Year2019
RAAN34.0411
Inclination28.5251
Eccentricity0.0389736
Argument of Perigee16.4037
Mean Anonmoly344.8784
Mean Motion14.98685277
Decay Rate0.00020473
L11 44359U 19036W 19201.90497873 .00020473 00000-0 29818-3 0 9991
L22 44359 28.5251 34.0411 0389736 16.4037 344.8784 14.98685277 3693

Live tracking and technical data element details for 2019-036W (NORAD 44359). 2019-036W can be tracked NOW for your location showing map with azimuth and elevation plus other details from your city location.

Track the satellite on the map from your city or location and see movement details for azimuth, elevation, latitude, longitude, range, height, and movement on the map or in text.







IsCatalogInMostPopularTable: catalog: 44359, numindb: 6
Update: records affected: 1



GetName: 44359 2019-036W

Hit Count: updated at: Sun, 21 Jul 2019 21:46:24 GMT